This demonstration page uses our WeatherBlox Daily Observations layout. Learn more.

Left ArrowRight Arrow

Hourly Observations for August 17, 2022

Temp ( °F °C ) Dew Point ( °F °C ) Humidity (%) Winds ( mph kmh ) Pressure ( in mb ) Visibility ( mi km ) Precip ( " mm )
12:51 am 00:51 Clear 75 23.9 64 17.8 69 69 SSE 3 6 29.82 1010 10 16 0.00 0.00
1:51 am 01:51 Clear 74 23.3 64 17.8 71 71 E 6 9 29.82 1010 10 16 0.00 0.00
2:51 am 02:51 Clear 75 23.9 62 16.7 64 64 E 8 13 29.82 1010 10 16 0.00 0.00
3:51 am 03:51 Clear 73 22.8 64 17.8 73 73 SSE 6 9 29.83 1010 10 16 0.00 0.00
4:51 am 04:51 Clear 73 22.8 63 17.2 71 71 S 7 11 29.83 1010 10 16 0.00 0.00
5:51 am 05:51 Sunny 71 21.7 63 17.2 76 76 SE 5 7 29.85 1011 10 16 0.00 0.00
6:51 am 06:51 Sunny 75 23.9 63 17.2 66 66 ESE 9 15 29.88 1012 10 16 0.00 0.00
7:51 am 07:51 Sunny 79 26.1 64 17.8 60 60 SSE 8 13 29.88 1012 10 16 0.00 0.00
8:51 am 08:51 Sunny 80 26.7 64 17.8 58 58 SSE 7 11 29.88 1012 10 16 0.00 0.00
9:51 am 09:51 Sunny 83 28.3 64 17.8 53 53 VRB 6 9 29.88 1012 10 16 0.00 0.00
10:51 am 10:51 Sunny 87 30.6 63 17.2 45 45 SSE 9 15 29.85 1011 10 16 0.00 0.00
11:51 am 11:51 Partly Cloudy 89 31.7 63 17.2 42 42 VRB 6 9 29.85 1011 10 16 0.00 0.00
12:51 pm 12:51 Partly Cloudy 91 32.8 60 15.6 36 36 VRB 7 11 29.83 1010 10 16 0.00 0.00
1:51 pm 13:51 Mostly Sunny 93 33.9 61 16.1 35 35 SSE 12 19 29.79 1009 10 16 0.00 0.00
2:51 pm 14:51 Partly Cloudy 92 33.3 62 16.7 37 37 S 9 15 29.78 1008 10 16 0.00 0.00
3:51 pm 15:51 Sunny 84 28.9 66 18.9 55 55 SSE 20 31 29.80 1009 10 16 0.00 0.00
4:51 pm 16:51 Cloudy 80 26.7 70 21.1 71 71 SSE 10 17 29.83 1010 10 16 0.01 0.13
5:51 pm 17:51 Sunny 81 27.2 67 19.4 62 62 SE 9 15 29.84 1011 10 16 0.00 0.00
6:51 pm 18:51 Cloudy 81 27.2 65 18.3 58 58 ESE 6 9 29.84 1010 10 16 0.00 0.00
7:51 pm 19:51 Clear 79 26.1 67 19.4 67 67 S 6 9 29.86 1011 10 16 0.00 0.00
8:51 pm 20:51 Clear 78 25.6 67 19.4 69 69 SSE 7 11 29.88 1012 10 16 0.00 0.00
9:51 pm 21:51 Clear 77 25 66 18.9 69 69 SE 5 7 29.88 1012 10 16 0.00 0.00
10:51 pm 22:51 Mostly Cloudy 77 25 66 18.9 69 69 SSE 3 6 29.88 1012 10 16 0.00 0.00
11:51 pm 23:51 Clear 75 23.9 66 18.9 74 74 ENE 5 7 29.88 1012 10 16 0.00 0.00

Powered by AerisWeather